Location: Ku?niki
(51.4449°N, 17.8974°E)
Time: 01:08:29
(UTC+00:00)

VELOX 1 - Pass Details

Date: 02 July 2022
Orbit: 624 x 639 km, 98.4° (Epoch: 07 August)

Event Time Altitude Azimuth Distance (km) Brightness Sun altitude
Rises 01:33:24 0° 114° (ESE) 2,931 ? -7.6°
Reaches altitude 10° 01:36:18 10° 93° (E) 2,030 ? -7.3°
Maximum altitude 01:38:59 16° 56° (NE) 1,663 ? -7.0°
Drops below altitude 10° 01:41:42 10° 18° (NNE) 2,043 ? -6.8°
Sets 01:44:38 0° 357° (N) 2,958 ? -6.5°
